Location: �perlecques
(50.8057°N, 2.1521°E)
Time: 11:13:32
(UTC+00:00)

Cosmos 1356 Rocket - Pass Details

Date: 09 April 2020
Orbit: 542 x 599 km, 81.2° (Epoch: 25 May)

Event Time Altitude Azimuth Distance (km) Brightness Sun altitude
Exits shadow 21:49:54 40° 255° (WSW) 884 4.4 -25.5°
Maximum altitude 21:50:43 45° 287° (WNW) 811 4.4 -25.5°
Drops below altitude 10° 21:54:49 10° 2° (N) 1,919 6.8 -25.9°
Sets 21:57:05 0° 8° (N) 2,814 7.7 -26.1°
